Wind_Speed
21 19 18 16 16 11 11 11 11 11 10 11 11 9 9 9 10 10 9 8 7 7 6 7 7 8 8 8 8 8 9 10 11 12 12 13 12 11 13 13 13 14 14
21 21 18 16 16 13 12 11 10 10 10 10 10 9 8 7 6 6 5 5 5 5 6 7 7 7 7 6 6 6 7 9 10 11 11 11 12 11 10 10 10 12 11
20 21 18 16 14 12 12 12 11 10 9 10 9 9 8 7 7 6 4 4 3 4 5 6 6 5 5 4 4 4 5 7 8 8 9 10 11 10 9 7 6 7 9
20 20 18 16 14 11 9 9 10 10 9 9 10 10 9 8 7 7 6 5 3 5 5 6 5 4 3 2 2 2 4 6 5 5 6 8 9 9 8 6 5 4 6
21 19 18 17 15 11 9 8 8 9 9 9 8 10 9 7 6 5 4 4 5 5 6 6 6 4 3 1 0 2 4 5 3 1 1 3 4 5 5 5 4 2 4
20 19 19 17 18 14 10 8 8 9 8 8 7 6 6 6 4 4 4 4 4 4 5 5 5 5 4 3 3 3 5 6 5 5 4 3 2 0 1 2 3 3 2
21 20 19 18 17 13 11 9 8 8 8 7 6 5 5 3 3 2 2 3 4 4 5 5 5 5 4 5 5 6 7 10 10 9 7 6 5 4 3 1 2 4 4
18 17 16 15 14 11 8 7 8 5 5 3 2 2 2 3 4 4 5 5 6 6 6 6 7 7 6 6 7 9 10 11 13 13 12 10 9 8 8 5 3 3 4
16 13 12 12 11 10 8 5 3 3 1 2 3 5 6 6 7 8 8 9 10 11 12 12 13 12 11 11 10 11 12 14 14 14 15 15 14 11 12 10 8 6 6
14 12 12 13 12 11 9 6 2 3 4 6 6 7 7 8 9 11 13 15 15 15 15 17 19 19 18 16 15 14 15 17 17 16 16 17 17 15 12 14 12 9 9
12 10 12 11 12 10 9 6 4 3 3 4 5 7 10 11 11 12 10 11 14 15 15 15 16 17 19 21 20 20 16 18 21 21 19 18 17 18 16 13 16 14 13
8 5 7 12 10 8 8 7 6 5 6 6 4 2 3 4 5 7 9 10 13 14 14 15 14 15 16 16 19 19 31 32 27 22 22 21 20 19 20 18 19 18 18
4 3 12 11 9 8 8 11 10 6 1 10 10 11 8 9 8 7 8 12 11 10 11 13 15 17 19 20 21 18 21 20 26 27 28 17 19 21 23 24 23 23 20
10 7 12 10 8 6 6 6 3 2 6 13 21 22 19 8 8 10 8 8 10 12 12 13 13 15 20 18 19 24 25 26 25 27 21 17 26 25 23 27 30 28 23
5 7 9 5 5 2 2 1 1 2 7 13 18 15 2 5 6 9 12 13 13 12 13 14 15 14 14 15 17 19 19 20 25 29 29 23 18 23 22 28 25 30 31
7 6 6 3 3 4 6 7 7 7 6 6 10 13 11 11 10 10 11 11 12 15 16 16 17 17 17 17 16 16 17 17 17 18 20 23 22 17 20 21 23 25 27
11 10 7 6 7 8 11 14 14 15 15 15 14 12 10 10 10 10 12 14 17 18 18 18 17 18 18 19 20 20 21 20 19 16 15 16 18 21 21 19 21 23 28
13 15 12 13 14 13 14 13 13 14 13 13 11 9 10 10 12 13 16 18 19 19 19 20 21 21 21 22 22 20 20 21 19 19 19 19 19 18 19 23 24 24 24
13 17 14 13 15 13 13 13 14 12 10 10 9 10 11 12 14 16 17 18 18 18 19 20 21 23 22 21 20 19 18 18 13 10 12 14 15 15 16 19 24 26 27
14 15 15 13 15 13 12 12 10 8 9 8 9 10 11 13 16 18 19 20 20 20 20 19 20 21 24 25 22 19 16 12 11 7 12 12 13 13 13 15 18 21 27
16 15 13 13 13 11 9 8 7 6 7 8 9 10 12 14 18 20 22 22 22 22 22 22 22 22 24 26 27 24 19 17 7 8 17 14 13 12 12 13 12 10 13
17 15 13 12 11 10 10 10 8 7 9 10 10 10 13 16 19 21 22 23 23 22 22 22 23 23 23 26 28 22 20 20 19 25 14 21 19 17 16 14 13 12 9
14 12 12 10 8 8 9 9 9 7 8 8 8 11 15 16 18 19 20 22 25 25 25 25 24 24 25 23 22 21 12 11 33 21 29 26 28 25 23 20 18 17 16
7 8 8 7 6 5 5 5 5 5 6 7 10 13 13 17 19 20 23 23 25 25 25 26 24 23 23 25 24 19 16 20 22 24 22 36 33 32 28 27 24 22 22
8 5 5 6 5 4 3 3 2 2 2 7 10 13 16 20 19 21 24 25 24 26 27 27 25 25 24 25 25 25 25 23 24 29 35 36 35 38 36 33 30 27 25
7 6 5 6 5 4 4 3 2 2 3 8 13 14 16 19 20 21 22 21 20 24 27 27 28 26 26 26 25 26 24 22 26 29 33 34 37 36 37 38 35 32 29
Wind_Direction
169 163 163 156 137 145 140 147 153 157 151 141 135 131 132 130 127 126 124 116 100 84 69 63 60 64 69 70 79 84 91 91 89 89 89 88 86 89 96 103 111 115 118
164 166 164 159 147 148 140 135 136 139 137 134 134 135 129 118 110 112 116 102 84 74 72 64 61 63 69 78 89 100 104 103 96 95 93 92 82 75 83 99 111 117 122
167 163 163 160 149 148 142 136 130 129 130 129 124 116 110 108 109 111 108 107 96 74 64 64 66 63 65 69 87 109 120 124 106 102 94 94 90 84 79 82 97 117 127
167 162 163 159 150 147 137 128 124 118 119 126 127 124 124 125 130 132 131 122 85 58 53 55 56 56 67 78 97 130 142 146 126 115 100 96 90 87 92 96 102 113 135
166 162 160 158 154 150 138 127 127 127 129 129 134 139 139 138 130 115 96 72 61 50 39 40 41 35 25 19 132 157 162 171 179 186 122 87 85 81 88 98 105 122 156
164 162 158 160 160 160 152 146 147 144 132 130 132 125 125 124 103 84 58 48 39 37 30 24 25 19 357 331 303 246 216 213 226 249 248 267 291 340 72 111 130 161 201
163 162 160 160 160 163 163 163 159 155 144 138 139 138 133 118 120 90 39 13 2 359 357 348 346 346 336 317 297 275 250 240 241 247 253 278 282 240 223 247 195 180 200
158 150 150 153 162 166 171 168 161 160 150 140 106 65 27 6 345 334 331 322 317 317 310 307 308 303 298 295 292 285 275 262 253 246 250 263 269 257 245 238 256 233 211
140 136 143 160 175 178 177 170 167 147 104 42 360 346 339 332 321 319 317 307 305 302 304 302 295 286 281 279 278 281 282 277 267 258 250 256 262 272 257 243 245 256 250
128 141 154 159 161 164 163 153 128 75 30 9 345 332 333 331 325 323 321 319 314 315 317 318 308 297 287 278 274 278 279 280 280 268 258 253 255 258 264 245 251 254 255
139 147 154 160 161 158 146 137 94 45 19 1 347 339 331 329 325 322 322 313 312 314 312 313 317 310 303 298 289 274 279 283 276 273 267 259 257 258 259 255 248 250 257
81 252 166 166 165 155 138 124 121 93 40 359 344 295 276 277 285 287 295 308 315 311 310 310 311 313 307 301 302 309 290 306 293 279 278 270 267 261 259 261 260 261 250
201 269 183 178 167 167 152 141 145 151 305 328 318 306 298 285 283 296 308 299 298 309 312 318 322 321 307 304 299 299 281 274 286 289 303 280 279 271 267 265 259 253 253
178 197 176 183 174 172 147 144 192 259 325 329 317 309 294 298 318 335 4 25 23 15 6 359 343 319 300 321 313 306 295 289 293 288 279 269 251 252 257 259 255 252 242
98 117 123 142 181 108 14 19 307 281 273 257 253 272 354 53 47 50 40 27 19 7 356 349 343 335 332 326 323 319 313 295 289 291 290 290 274 254 244 260 258 246 249
112 125 112 86 17 358 339 329 333 338 11 67 87 91 84 70 62 53 44 32 20 13 5 353 342 333 324 316 315 316 317 318 311 304 296 288 287 280 269 252 253 247 244
98 78 71 69 45 42 66 71 73 75 85 94 93 87 74 65 58 44 33 22 14 7 359 351 345 338 330 322 311 306 301 300 303 306 306 301 291 281 276 276 268 262 252
76 82 72 70 70 71 72 72 82 95 101 96 88 76 66 57 44 29 19 13 11 6 2 357 350 347 344 341 340 337 321 307 300 296 299 297 293 291 279 267 264 264 262
78 75 76 77 79 79 77 81 89 92 87 76 69 65 56 40 28 20 17 14 10 5 2 2 359 354 350 345 342 344 346 343 328 309 304 308 314 307 290 276 266 263 263
83 72 71 74 74 71 75 79 77 74 71 63 57 51 40 29 20 15 13 10 5 1 0 3 1 359 355 350 346 343 354 357 340 346 353 343 342 332 323 307 288 272 264
78 71 68 64 62 58 55 52 57 59 71 56 53 44 29 18 12 9 7 7 6 4 5 0 358 358 358 354 346 342 351 344 334 335 330 318 321 325 339 324 329 313 278
89 82 76 70 66 64 50 41 39 65 55 48 47 33 21 12 6 5 5 3 358 355 356 355 356 356 359 3 3 3 351 346 320 336 336 320 315 312 303 310 307 307 310
91 103 94 87 76 62 55 46 46 49 37 46 31 9 359 359 0 360 353 349 349 349 350 353 352 352 350 354 5 7 349 330 329 322 326 322 321 316 313 303 289 286 287
142 125 107 105 94 82 79 72 58 45 19 25 9 2 355 353 354 353 346 340 338 338 340 343 343 344 342 342 341 344 336 328 328 320 312 316 315 314 315 311 304 287 280
173 147 139 129 114 111 104 104 89 68 44 357 339 345 343 342 338 338 336 334 331 333 333 332 331 334 333 332 332 327 323 321 317 316 311 316 315 310 310 309 307 304 297
182 190 184 168 159 130 145 164 195 229 285 341 349 335 331 329 329 332 331 327 322 321 325 327 323 319 319 315 314 313 316 321 316 312 309 308 308 311 310 305 304 304 303
Height
1540 1544 1545 1547 1546 1550 1552 1554 1554 1556 1557 1558 1561 1563 1564 1565 1565 1565 1565 1565 1565 1566 1568 1568 1568 1567 1567 1566 1565 1565 1566 1566 1566 1566 1565 1563 1562 1562 1561 1561 1562 1563 1563
1536 1542 1547 1550 1550 1551 1553 1556 1558 1559 1560 1561 1563 1564 1566 1568 1569 1569 1569 1569 1569 1569 1568 1568 1568 1568 1568 1568 1568 1568 1568 1568 1568 1567 1566 1564 1563 1563 1563 1563 1564 1564 1565
1540 1544 1549 1554 1556 1557 1558 1557 1560 1562 1563 1563 1564 1567 1569 1570 1570 1571 1572 1572 1571 1571 1570 1569 1568 1569 1569 1570 1570 1571 1571 1570 1570 1569 1567 1566 1564 1564 1565 1565 1566 1566 1567
1541 1545 1551 1554 1558 1562 1562 1562 1563 1564 1565 1566 1566 1568 1569 1571 1572 1572 1572 1572 1574 1573 1573 1572 1571 1571 1570 1570 1570 1571 1571 1571 1571 1570 1569 1568 1567 1567 1567 1568 1568 1568 1568
1544 1547 1550 1553 1558 1562 1564 1564 1565 1566 1566 1568 1570 1568 1570 1572 1573 1574 1574 1574 1574 1574 1575 1575 1574 1573 1572 1571 1570 1570 1571 1571 1571 1571 1571 1570 1570 1569 1568 1568 1568 1569 1569
1544 1547 1550 1554 1556 1559 1563 1565 1565 1566 1568 1570 1572 1573 1572 1572 1574 1575 1575 1575 1574 1573 1573 1573 1574 1573 1573 1572 1571 1570 1569 1570 1570 1570 1571 1571 1571 1571 1570 1569 1568 1569 1570
1545 1548 1550 1552 1556 1560 1561 1563 1566 1567 1568 1570 1571 1572 1572 1573 1572 1574 1574 1575 1574 1574 1573 1573 1572 1573 1573 1573 1572 1571 1570 1569 1569 1569 1570 1570 1571 1570 1570 1570 1569 1569 1569
1549 1552 1553 1556 1558 1561 1563 1565 1565 1569 1569 1571 1572 1574 1574 1575 1576 1575 1575 1575 1574 1573 1572 1571 1572 1571 1571 1571 1572 1571 1570 1569 1569 1569 1569 1570 1569 1569 1569 1569 1568 1568 1568
1555 1557 1557 1558 1559 1558 1562 1566 1569 1569 1572 1572 1574 1575 1575 1575 1575 1576 1576 1574 1574 1573 1572 1571 1570 1570 1570 1570 1570 1570 1570 1569 1568 1568 1568 1567 1567 1567 1566 1567 1566 1567 1567
1561 1561 1561 1560 1561 1561 1562 1564 1569 1570 1573 1574 1574 1575 1575 1575 1574 1576 1576 1576 1575 1573 1571 1570 1568 1568 1568 1567 1567 1568 1569 1568 1568 1567 1566 1564 1563 1563 1563 1564 1564 1565 1565
1562 1562 1562 1564 1563 1562 1563 1563 1568 1570 1571 1572 1573 1574 1574 1574 1573 1573 1573 1573 1573 1572 1570 1568 1565 1565 1565 1566 1566 1564 1563 1565 1566 1564 1562 1562 1561 1561 1561 1561 1562 1562 1563
1566 1565 1565 1564 1564 1564 1564 1566 1565 1569 1571 1572 1571 1570 1569 1569 1569 1569 1570 1570 1570 1570 1568 1566 1562 1561 1561 1561 1561 1558 1553 1554 1559 1559 1557 1559 1559 1558 1557 1557 1558 1558 1560
1561 1563 1561 1564 1564 1563 1563 1562 1563 1566 1568 1569 1571 1572 1570 1570 1568 1566 1566 1567 1567 1566 1564 1563 1560 1556 1557 1557 1557 1555 1556 1555 1554 1550 1546 1548 1552 1552 1554 1552 1552 1553 1554
1560 1560 1563 1563 1562 1563 1564 1565 1565 1563 1565 1564 1565 1568 1570 1570 1565 1565 1567 1567 1565 1563 1562 1560 1556 1550 1553 1552 1553 1552 1549 1548 1545 1547 1549 1549 1547 1548 1547 1546 1546 1545 1547
1559 1562 1563 1562 1563 1561 1561 1562 1563 1562 1563 1564 1567 1568 1571 1569 1565 1566 1567 1565 1563 1563 1560 1557 1556 1553 1551 1552 1551 1547 1545 1543 1542 1542 1542 1542 1543 1543 1541 1541 1541 1542 1544
1561 1561 1559 1562 1563 1561 1561 1562 1563 1563 1564 1566 1569 1570 1570 1567 1567 1567 1566 1564 1563 1561 1558 1557 1555 1552 1551 1549 1548 1546 1544 1541 1540 1538 1537 1537 1538 1538 1537 1537 1537 1538 1540
1559 1559 1561 1561 1563 1562 1564 1565 1564 1564 1566 1569 1571 1571 1569 1567 1567 1566 1565 1564 1563 1561 1560 1558 1555 1552 1549 1547 1545 1544 1542 1539 1537 1537 1535 1533 1532 1533 1533 1533 1534 1534 1535
1564 1557 1564 1564 1562 1565 1566 1567 1568 1569 1570 1572 1572 1571 1569 1568 1567 1567 1565 1564 1564 1562 1560 1556 1553 1550 1548 1545 1543 1540 1538 1536 1535 1534 1532 1530 1529 1528 1528 1529 1530 1530 1531
1565 1561 1563 1566 1564 1568 1569 1570 1571 1573 1573 1573 1572 1571 1570 1569 1568 1568 1566 1565 1563 1561 1558 1555 1552 1549 1546 1544 1542 1540 1537 1534 1531 1530 1529 1527 1526 1524 1523 1524 1524 1525 1526
1566 1565 1565 1569 1568 1571 1573 1573 1573 1574 1574 1574 1572 1571 1570 1569 1569 1568 1566 1564 1562 1560 1558 1555 1552 1550 1546 1542 1540 1538 1535 1534 1532 1530 1529 1527 1525 1523 1521 1520 1519 1519 1519
1566 1566 1570 1571 1571 1573 1575 1575 1575 1574 1574 1574 1573 1572 1572 1571 1570 1568 1566 1563 1561 1558 1556 1553 1551 1548 1544 1540 1536 1532 1532 1532 1529 1529 1527 1524 1523 1522 1521 1519 1518 1516 1515
1566 1569 1572 1573 1574 1574 1575 1575 1575 1575 1574 1573 1573 1573 1572 1571 1569 1568 1565 1563 1561 1558 1556 1553 1549 1546 1544 1540 1536 1532 1528 1526 1526 1525 1524 1523 1521 1520 1520 1518 1516 1515 1512
1569 1572 1573 1575 1576 1576 1576 1575 1575 1575 1575 1574 1574 1574 1572 1571 1570 1568 1565 1563 1561 1557 1554 1552 1549 1545 1542 1541 1539 1538 1533 1530 1523 1521 1520 1519 1518 1517 1516 1514 1514 1513 1511
1574 1574 1574 1576 1576 1576 1576 1576 1575 1574 1575 1574 1574 1573 1573 1571 1569 1567 1564 1562 1559 1556 1553 1550 1548 1545 1542 1540 1539 1538 1538 1535 1528 1515 1514 1514 1514 1513 1512 1510 1508 1507 1506
1574 1575 1575 1575 1576 1576 1575 1575 1574 1574 1574 1575 1575 1573 1571 1570 1568 1565 1562 1560 1557 1554 1552 1549 1546 1543 1541 1539 1536 1534 1532 1530 1528 1522 1510 1507 1508 1507 1506 1505 1503 1501 1501
1572 1574 1575 1575 1575 1574 1574 1573 1573 1573 1574 1574 1573 1572 1570 1569 1566 1563 1560 1558 1555 1552 1549 1546 1544 1542 1539 1537 1534 1532 1529 1527 1523 1519 1512 1508 1504 1501 1499 1498 1497 1496 1495